Station CHYV2 - 8638999 - Cape Henry, VA Image indicating link to RSS feed of recent meteorological observations for station CHYV2


Conditions at CHYV2 as of
(4:18 pm EDT)
2018 GMT on 04/23/2024:
     

Click on the graph icon in the table below to see a time series plot of the last five days of that observation.

5-day plot - Wind Direction Wind Direction (WDIR): SE ( 140 deg true )
5-day plot - Wind Speed Wind Speed (WSPD): 15.9 kts
5-day plot - Wind Gust Wind Gust (GST): 19.0 kts
5-day plot - Atmospheric Pressure Atmospheric Pressure (PRES):30.11 in
5-day plot - Air Temperature Air Temperature (ATMP): 55.9 °F
5-day plot - Wind Speed at 10 Meters Wind Speed at 10 meters (WSPD10M): 13.6 kts
5-day plot - Wind Speed at 20 Meters Wind Speed at 20 meters (WSPD20M): 15.5 kts
5-day plot -  Wind Speed, Wind Gust and Atmospheric Pressure Combined plot of Wind Speed, Gust, and Air Pressure
NOS Water Level Observation Network Water Level
Previous observations
TIME
(EDT)
5-day plot - Wind Direction
WDIR
 
5-day plot - Wind Speed
WSPD
kts
5-day plot - Wind Gust
GST
kts
5-day plot - Wave Height
WVHT
ft
5-day plot - Dominant Wave Period
DPD
sec
5-day plot - Average Wave Period
APD
sec
5-day plot - Mean Wave Direction
MWD
 
5-day plot - Atmospheric Pressure
PRES
in
5-day plot - Pressure Tendency
PTDY
in
5-day plot - Air Temperature
ATMP
°F
5-day plot - Water Temperature
WTMP
°F
5-day plot - Dew Point
DEWP
°F
5-day plot - Salinity
SAL
psu
5-day plot - Visibility
VIS
nmi
5-day plot - Tide (above MLLW)
TIDE
ft
2024-04-23 04:12 pm SE 15.0 19.0----30.11- 57.0-----
2024-04-23 04:06 pm SE 15.9 19.0----30.11- 56.3-----
2024-04-23 04:00 pm SE 15.9 19.0----30.12-0.06 56.7-----
2024-04-23 03:54 pm SE 15.9 19.0----30.12- 56.1-----
2024-04-23 03:48 pm SE 13.0 18.1----30.12- 56.7-----
2024-04-23 03:42 pm SE 11.1 17.1----30.13- 57.4-----
2024-04-23 03:36 pm SE 15.9 19.0----30.13- 55.4-----
2024-04-23 03:30 pm SE 14.0 18.1----30.14- 56.5-----
2024-04-23 03:24 pm SE 15.0 17.1----30.14- 55.9-----
2024-04-23 03:18 pm SE 15.0 18.1----30.14- 56.3-----
2024-04-23 03:12 pm SE 13.0 17.1----30.14- 56.1-----
2024-04-23 03:06 pm SE 15.0 17.1----30.14- 55.8-----
2024-04-23 03:00 pm SE 14.0 17.1----30.14-0.06 56.1-----
2024-04-23 02:54 pm SE 14.0 18.1----30.15- 56.3-----
2024-04-23 02:48 pm SE 13.0 15.9----30.15- 55.9-----
2024-04-23 02:42 pm SE 14.0 18.1----30.15- 55.8-----
2024-04-23 02:36 pm SE 12.0 15.9----30.16- 56.7-----
2024-04-23 02:30 pm SE 12.0 15.9----30.16- 56.7-----
2024-04-23 02:24 pm SE 12.0 17.1----30.16- 55.9-----
2024-04-23 02:18 pm SE 12.0 15.0----30.16- 56.1-----
2024-04-23 02:12 pmESE 11.1 14.0----30.16- 56.8-----
2024-04-23 02:06 pm SE 9.9 15.0----30.16- 56.3-----
2024-04-23 02:00 pm SE 11.1 14.0----30.17-0.05 55.9-----
2024-04-23 01:54 pm SE 9.9 15.0----30.17- 55.6-----
2024-04-23 01:48 pm SE 12.0 15.0----30.17- 55.8-----
2024-04-23 01:42 pmESE 9.9 14.0----30.17- 55.2-----
2024-04-23 01:36 pm SE 11.1 13.0----30.17- 55.8-----
2024-04-23 01:30 pm SE 11.1 13.0----30.17- 56.1-----
2024-04-23 01:24 pm SE 11.1 14.0----30.17- 55.4-----
2024-04-23 01:18 pm SE 9.9 13.0----30.18- 55.6-----
2024-04-23 01:12 pm SE 11.1 14.0----30.18- 55.2-----
2024-04-23 01:06 pm SE 9.9 14.0----30.18- 55.8-----
2024-04-23 01:00 pmESE 11.1 13.0----30.18-0.05 55.0-----
2024-04-23 12:54 pmESE 11.1 13.0----30.18- 55.0-----
2024-04-23 12:48 pmESE 11.1 13.0----30.18- 55.2-----
2024-04-23 12:42 pmESE 9.9 13.0----30.19- 55.9-----
2024-04-23 12:36 pmESE 8.0 12.0----30.19- 55.6-----
2024-04-23 12:30 pmESE 8.9 11.1----30.19- 55.6-----
2024-04-23 12:24 pm E 9.9 11.1----30.19- 54.9-----
2024-04-23 12:18 pm E 8.0 9.9----30.20- 55.0-----
2024-04-23 12:12 pm E 8.9 9.9----30.20- 54.9-----
2024-04-23 12:06 pm E 8.0 8.9----30.20- 55.0-----
2024-04-23 12:00 pm E 7.0 8.9----30.21-0.02 55.0-----
2024-04-23 11:54 am E 8.0 9.9----30.21- 54.9-----
2024-04-23 11:48 am E 8.0 8.9----30.22- 54.7-----
2024-04-23 11:42 am E 7.0 8.9----30.22- 54.9-----
2024-04-23 11:36 am E 6.0 7.0----30.22- 55.0-----
2024-04-23 11:30 am E 6.0 8.0----30.22- 54.9-----
2024-04-23 11:24 am E 7.0 8.0----30.22- 55.0-----
2024-04-23 11:18 am E 7.0 8.9----30.22- 54.3-----
2024-04-23 11:12 am E 6.0 8.0----30.22- 54.7-----
2024-04-23 11:06 am E 4.1 6.0----30.22- 54.7-----
2024-04-23 11:00 am E 5.1 7.0----30.22+0.00 54.9-----
2024-04-23 10:54 am E 5.1 6.0----30.22- 54.5-----
2024-04-23 10:48 am E 5.1 6.0----30.22- 54.1-----
2024-04-23 10:42 am E 5.1 7.0----30.22- 54.9-----
2024-04-23 10:36 am E 2.9 5.1----30.22- 55.4-----
2024-04-23 10:30 am E 2.9 5.1----30.23- 55.4-----
2024-04-23 10:24 am E 4.1 5.1----30.23- 55.2-----
2024-04-23 10:18 am E 2.9 5.1----30.23- 56.1-----
2024-04-23 10:12 amENE 2.9 4.1----30.23- 56.1-----
2024-04-23 10:06 am E 1.0 2.9----30.23- 55.4-----
2024-04-23 10:00 am E 2.9 4.1----30.23+0.03 55.0-----
2024-04-23 09:54 amENE 1.9 5.1----30.23- 54.3-----
2024-04-23 09:48 am E 4.1 5.1----30.23- 54.1-----
2024-04-23 09:42 am E 4.1 5.1----30.23- 54.3-----
2024-04-23 09:36 am E 4.1 5.1----30.23- 54.7-----
2024-04-23 09:30 am E 2.9 4.1----30.23- 55.2-----
2024-04-23 09:24 amENE 1.9 2.9----30.23- 55.6-----
2024-04-23 09:18 amENE 1.0 2.9----30.23- 55.4-----
2024-04-23 09:12 amENE 2.9 4.1----30.23- 54.7-----
2024-04-23 09:06 am E 4.1 5.1----30.23- 54.3-----
2024-04-23 09:00 am E 2.9 4.1----30.22+0.04 54.7-----
2024-04-23 08:54 amENE 2.9 4.1----30.22- 54.7-----
2024-04-23 08:48 am E 1.9 4.1----30.22- 55.4-----
2024-04-23 08:42 am- 0.0 1.9----30.22- 55.6-----
2024-04-23 08:36 amENE 1.9 2.9----30.22- 55.4-----
2024-04-23 08:30 amENE 1.0 1.9----30.22- 55.4-----
2024-04-23 08:24 amNNE 1.0 2.9----30.22- 54.7-----
2024-04-23 08:18 am- 0.0 1.0----30.22- 54.3-----
2024-04-23 08:12 am- 0.0 1.0----30.22- 54.0-----
2024-04-23 08:06 am- 0.0 1.0----30.21- 52.7-----
2024-04-23 08:00 am SW 1.0 1.9----30.22+0.05 51.6-----
2024-04-23 07:54 amSSW 1.0 1.9----30.21- 51.3-----
2024-04-23 07:48 amSSW 1.9 2.9----30.21- 50.7-----
2024-04-23 07:42 amSSW 1.9 2.9----30.21- 50.4-----
2024-04-23 07:36 amSSW 1.9 2.9----30.21- 50.0-----
2024-04-23 07:30 amSSW 1.9 2.9----30.21- 50.0-----
2024-04-23 07:24 amSSW 1.9 2.9----30.21- 49.6-----
2024-04-23 07:18 amSSW 1.9 2.9----30.21- 49.5-----
2024-04-23 07:12 amSSW 1.9 1.9----30.21- 49.6-----
2024-04-23 07:06 amSSW 1.9 2.9----30.20- 49.3-----
2024-04-23 07:00 amSSW 2.9 2.9----30.20+0.06 48.7-----
2024-04-23 06:54 am S 1.9 2.9----30.20- 48.7-----
2024-04-23 06:48 amSSW 1.9 1.9----30.20- 48.6-----
2024-04-23 06:42 am SW 1.9 2.9----30.19- 48.0-----
2024-04-23 06:36 amSSW 1.9 2.9----30.19- 47.5-----
2024-04-23 06:30 am S 2.9 2.9----30.20- 46.4-----
2024-04-23 06:24 am S 2.9 2.9----30.19- 46.4-----
2024-04-23 06:18 am S 1.9 2.9----30.19- 46.8-----
2024-04-23 06:12 am S 2.9 4.1----30.19- 46.6-----
2024-04-23 06:06 amSSE 2.9 4.1----30.19- 46.0-----
2024-04-23 06:00 am S 1.9 2.9----30.19+0.04 45.7-----
2024-04-23 05:54 am S 1.9 2.9----30.18- 44.8-----
2024-04-23 05:48 amSSE 1.9 2.9----30.18- 45.1-----
2024-04-23 05:42 am S 1.0 4.1----30.18- 45.7-----
2024-04-23 05:36 am W 2.9 5.1----30.18- 46.4-----
2024-04-23 05:30 am W 5.1 6.0----30.17- 46.9-----
2024-04-23 05:24 am W 5.1 7.0----30.17- 46.8-----
2024-04-23 05:18 am W 6.0 8.0----30.17- 46.9-----
2024-04-23 05:12 am W 6.0 8.0----30.16- 47.3-----
2024-04-23 05:06 am W 5.1 6.0----30.16- 47.1-----
2024-04-23 05:00 am W 5.1 7.0----30.16+0.01 46.9-----
2024-04-23 04:54 am W 5.1 7.0----30.16- 47.1-----
2024-04-23 04:48 am W 6.0 8.0----30.16- 47.3-----
2024-04-23 04:42 am W 7.0 8.9----30.16- 47.3-----
2024-04-23 04:36 am W 8.0 9.9----30.15- 47.5-----
2024-04-23 04:30 am W 8.0 9.9----30.15- 47.1-----
2024-04-23 04:24 am W 7.0 9.9----30.15- 46.8-----
2024-04-23 04:18 am W 8.0 11.1----30.15- 46.9-----
2024-04-23 04:12 am W 8.0 9.9----30.15- 46.8-----
2024-04-23 04:06 am W 8.0 9.9----30.15- 45.9-----
2024-04-23 04:00 am W 6.0 8.0----30.15-0.01 45.7-----
2024-04-23 03:54 am W 7.0 8.0----30.15- 45.9-----
2024-04-23 03:48 am W 7.0 8.0----30.14- 45.9-----
2024-04-23 03:42 am W 6.0 6.0----30.14- 45.5-----
2024-04-23 03:36 amWSW 5.1 6.0----30.14- 45.3-----
2024-04-23 03:30 amWSW 5.1 6.0----30.14- 45.7-----
2024-04-23 03:24 amWSW 5.1 7.0----30.14- 46.0-----
2024-04-23 03:18 amWSW 6.0 7.0----30.14- 46.4-----
2024-04-23 03:12 amWSW 6.0 7.0----30.14- 46.8-----
2024-04-23 03:06 am SW 5.1 7.0----30.14- 47.1-----
2024-04-23 03:00 am SW 6.0 7.0----30.14-0.02 47.3-----
2024-04-23 02:54 am SW 6.0 7.0----30.14- 47.1-----
2024-04-23 02:48 am SW 6.0 7.0----30.14- 47.1-----
2024-04-23 02:42 am SW 7.0 7.0----30.14- 47.1-----
2024-04-23 02:36 am SW 6.0 6.0----30.14- 47.8-----
2024-04-23 02:30 amSSW 5.1 6.0----30.14- 47.5-----
2024-04-23 02:24 amSSW 5.1 6.0----30.15- 46.8-----
2024-04-23 02:18 amSSW 5.1 6.0----30.15- 46.9-----
2024-04-23 02:12 amSSW 5.1 6.0----30.15- 46.6-----
2024-04-23 02:06 amSSW 5.1 7.0----30.15- 46.8-----
2024-04-23 02:00 amSSW 6.0 7.0----30.15+0.00 46.6-----
2024-04-23 01:54 amSSW 6.0 7.0----30.15- 46.4-----
2024-04-23 01:48 amSSW 6.0 7.0----30.15- 46.2-----
2024-04-23 01:42 amSSW 5.1 7.0----30.15- 46.0-----
2024-04-23 01:36 amSSW 6.0 7.0----30.15- 46.0-----
2024-04-23 01:30 amSSW 6.0 8.0----30.15- 46.6-----
2024-04-23 01:24 amSSW 5.1 7.0----30.15- 46.6-----
2024-04-23 01:18 amSSW 5.1 7.0----30.16- 47.5-----
2024-04-23 01:12 amSSW 6.0 7.0----30.16- 47.7-----
2024-04-23 01:06 amSSW 5.1 7.0----30.16- 46.8-----
2024-04-23 01:00 amSSW 6.0 8.0----30.16+0.00 47.1-----
2024-04-23 12:54 amSSW 6.0 7.0----30.16- 46.4-----
2024-04-23 12:48 amSSW 5.1 7.0----30.16- 46.8-----
2024-04-23 12:42 amSSW 5.1 8.0----30.16- 46.2-----
2024-04-23 12:36 amSSW 6.0 7.0----30.16- 46.0-----
2024-04-23 12:30 amSSW 5.1 7.0----30.16- 46.4-----
2024-04-23 12:24 amSSW 5.1 7.0----30.16- 46.2-----
2024-04-23 12:18 amSSW 5.1 6.0----30.16- 46.4-----
2024-04-23 12:12 amSSW 4.1 7.0----30.16- 46.4-----
2024-04-23 12:06 amSSW 5.1 7.0----30.16- 46.4-----
2024-04-23 12:00 amSSW 6.0 7.0----30.16+0.01 46.2-----
2024-04-22 11:54 pmSSW 5.1 7.0----30.16- 46.2-----
2024-04-22 11:48 pm S 6.0 7.0----30.16- 46.6-----
2024-04-22 11:42 pmSSW 4.1 6.0----30.16- 46.4-----
2024-04-22 11:36 pm S 6.0 7.0----30.16- 46.9-----
2024-04-22 11:30 pm S 6.0 7.0----30.16- 47.1-----
2024-04-22 11:24 pm S 6.0 7.0----30.16- 47.1-----
2024-04-22 11:18 pm S 6.0 7.0----30.16- 47.1-----
2024-04-22 11:12 pm S 5.1 6.0----30.16- 47.1-----
2024-04-22 11:06 pm S 5.1 6.0----30.16- 47.1-----
2024-04-22 11:00 pm S 5.1 7.0----30.16+0.03 47.3-----
2024-04-22 10:54 pm S 6.0 8.0----30.16- 47.5-----
2024-04-22 10:48 pm S 6.0 7.0----30.16- 47.1-----
2024-04-22 10:42 pm S 6.0 7.0----30.16- 47.1-----
2024-04-22 10:36 pm S 6.0 8.0----30.16- 47.1-----
2024-04-22 10:30 pm S 7.0 8.0----30.16- 47.5-----
2024-04-22 10:24 pm S 6.0 8.0----30.16- 47.5-----
2024-04-22 10:18 pm S 6.0 7.0----30.16- 47.1-----
2024-04-22 10:12 pm S 6.0 7.0----30.16- 47.7-----
2024-04-22 10:06 pm S 5.1 6.0----30.16- 47.7-----
2024-04-22 10:00 pm S 5.1 7.0----30.16+0.04 47.8-----
2024-04-22 09:54 pm S 6.0 7.0----30.16- 48.2-----
2024-04-22 09:48 pm S 6.0 7.0----30.16- 47.8-----
2024-04-22 09:42 pm S 6.0 7.0----30.16- 47.5-----
2024-04-22 09:36 pm S 6.0 6.0----30.16- 47.3-----
2024-04-22 09:30 pm S 6.0 6.0----30.15- 48.0-----
2024-04-22 09:24 pm S 5.1 6.0----30.15- 48.0-----
2024-04-22 09:18 pm S 5.1 5.1----30.15-------
2024-04-22 09:12 pmSSE 5.1 6.0----30.15-------
2024-04-22 09:06 pmSSE 5.1 5.1----30.14-------
2024-04-22 09:00 pmSSE 5.1 5.1----30.14+0.03 48.6-----
2024-04-22 08:54 pmSSE 5.1 6.0----30.14- 48.9-----
2024-04-22 08:48 pmSSE 5.1 6.0----30.14-------
2024-04-22 08:42 pmSSE 6.0 6.0----30.14-------
2024-04-22 08:36 pmSSE 5.1 6.0----30.14-------
2024-04-22 08:30 pm S 5.1 5.1----30.14- 48.4-----
2024-04-22 08:24 pm S 4.1 5.1----30.14- 48.2-----
2024-04-22 08:18 pm--------- 48.6-----
2024-04-22 08:12 pm--------- 49.3-----
2024-04-22 08:06 pm--------- 49.1-----
2024-04-22 08:00 pm SE 5.1 5.1----30.13+0.01 49.5-----
2024-04-22 07:54 pm SE 5.1 6.0----30.13- 49.8-----
2024-04-22 07:48 pm SE 5.1 6.0----30.13- 50.0-----
2024-04-22 07:42 pm SE 4.1 6.0----30.13- 50.2-----
2024-04-22 07:36 pmESE 4.1 5.1----30.13- 50.9-----
2024-04-22 07:30 pm E 4.1 6.0----30.12- 50.9-----
2024-04-22 07:24 pm E 4.1 5.1----30.12- 51.1-----
2024-04-22 07:18 pmENE 5.1 6.0----30.12- 51.3-----
2024-04-22 07:12 pmENE 5.1 7.0----30.12- 51.4-----
2024-04-22 07:06 pmENE 6.0 8.9----30.12- 51.4-----
2024-04-22 07:00 pmENE 6.0 8.9----30.12+0.00 51.4-----
2024-04-22 06:54 pm NE 7.0 8.0----30.12- 51.4-----
2024-04-22 06:48 pmENE 7.0 8.0----30.12- 51.4-----
2024-04-22 06:42 pm NE 7.0 9.9----30.12- 51.1-----
2024-04-22 06:36 pm NE 8.0 9.9----30.12- 51.1-----
2024-04-22 06:30 pmENE 8.0 9.9----30.12- 50.9-----
2024-04-22 06:24 pm NE 8.9 11.1----30.12- 50.9-----
2024-04-22 06:18 pmENE 8.0 11.1----30.12- 50.9-----
2024-04-22 06:12 pm NE 8.9 11.1----30.12- 51.1-----
2024-04-22 06:06 pm NE 8.0 11.1----30.12- 51.3-----
2024-04-22 06:00 pm NE 8.0 9.9----30.12-0.01 51.4-----
2024-04-22 05:54 pmENE 8.9 12.0----30.11- 51.1-----
2024-04-22 05:48 pm NE 9.9 11.1----30.11- 51.3-----
2024-04-22 05:42 pmENE 8.9 11.1----30.11- 51.3-----
2024-04-22 05:36 pm NE 8.9 11.1----30.11- 51.3-----
2024-04-22 05:30 pmENE 9.9 12.0----30.11- 50.9-----
2024-04-22 05:24 pm NE 9.9 12.0----30.11- 50.9-----
2024-04-22 05:18 pm NE 11.1 12.0----30.11- 50.9-----
2024-04-22 05:12 pm NE 9.9 12.0----30.11- 50.7-----
2024-04-22 05:06 pm NE 8.9 12.0----30.11- 50.9-----
2024-04-22 05:00 pmENE 8.9 12.0----30.12-0.02 50.9-----
2024-04-22 04:54 pmENE 9.9 12.0----30.12- 50.9-----